WGS 10 (USA 291)

Last updated on Sun Oct 06 2024 00:02:41 GMT+0000 (Coordinated Universal Time)

1 44071U 19014A 24279.55288263 .00000056 00000+0 00000+0 0 9993 2 44071 0.0182 180.5248 0000114 58.7051 34.8651 1.00272783 20413
UTC large
Height (km)
Speed (km/s)
/
Latitude / Longitude
Inclination (degrees)
Orbital Period (minutes)
Azimuth
Elevation
Range (km)
Doppler Factor

Next 0 passes for location: London (51.5072 / 0.1276)

Sorry there are no passes over London.